36 min.

Voeg een landingsbaan toe om zijwind en tegenwind te zien.

Landingsbaan toevoegen
METAR ETWM 031420Z AUTO 19002KT //// // ////// 20/08 Q1012 ///

METAR uitleg | Integreren

METAR Alte Ems Airfield

Alte Ems Airfield is een klein vliegveld in Herbrum, Duitsland. De terreinhoogte is 7 ft.

Alte Ems Airfield heeft geen recente waarnemingen gepubliceerd, daarom laten we je het rapport zien van Meppen Air Base, dat 34 km verderop ligt. Dit rapport is opgesteld op 3 augustus 2021 16:20, lokale tijd.

Vliegveldwaarnemingen

De wind staat vanuit de richting zuid (190°) met een snelheid van 2 kt.

De temperatuur en gevoelstemperatuur zijn 20 °C. Het dauwpunt is 8 °C, dus is de relatieve luchtvochtigheid 46%. De luchtdruk op zeeniveau is 1012 hPa (QNH).

Daglichtperiode

De zon komt vandaag op om 05:52 en gaat onder om 21:21. Dit geldt voor Alte Ems Airfield, de universele daglichtperiode kan anders zijn. Het verschil tussen de lokale tijd en UTC is +2 uur. Op dit moment is er sprake van zomertijd.

Historische gegevens

Doneren

Help je mee om Metar-Taf.com draaiend te houden?
Jouw bijdrage helpt om de site verder te ontwikkelen en om de kosten te betalen.

Nooit meer advertenties

Doneer je € 5 of meer? Dan laten we je nooit meer advertenties zien, als blijk van onze eeuwige dankbaarheid!
Log wel even in voordat je doneert

Wil je het vliegweer van Alte Ems Airfield op jouw website? Meer info   Gratis!